Flag Weather past 2 weeks in Campos, Rio de Janeiro, Brazil

Now
86 °F

Sunny.


Feels Like: 88 °F
Forecast: 72 / 86 °F
Wind: 6 mph from North

Location: Rio De Janeiro Airport

Current Time: Oct 30, 2014 at 10:41:38 AM

Latest Report: Oct 30, 2014 at 10:00 AM


Visibility: 10 mi

Pressure: 29.83 "Hg

Humidity: 52%

Dew point: 66 °F

Location of CamposLocation

Historic Weather in Campos — Graph

°F

Campos temperature yesterday

Maximum temperature yesterday: 84 °F (at 5:00 PM)
Minimum temperature yesterday: 68 °F (at 6:00 AM)
Average temperature yesterday: 78 °F

Past Weeks' High & Low Weather Summary

 TemperatureHumidityPressure
High91 °F (Oct 19, 4:00 PM)100% (Oct 15, 9:00 PM)30.21 "Hg (Oct 15, 9:00 PM)
Low66 °F (Oct 21, 11:00 PM)51% (Oct 24, 11:00 AM)29.68 "Hg (Oct 19, 4:00 PM)
Average75 °F75%29.97 "Hg
* Reported Oct 15 8:00 AM — Oct 30 9:00 AM, Campos, Weather by CustomWeather, © 2014

Note: Actual official high and low records may vary slightly from our data, if they occured in-between our weather recording intervals... More about our weather records

Advertising

Campos weather history for previous 24 hours

 ConditionsComfort  
Time TempWeatherWind HumidityBarometerVisibility
9:00 AM
Oct 30
82 °FSunny.5 mph58%29.83 "Hg10 mi
8:00 AM77 °FSunny.7 mph74%29.83 "Hg10 mi
7:00 AM75 °FSunny.7 mph83%29.80 "Hg10 mi
6:00 AM73 °FClear.3 mph89%29.77 "Hg10 mi
11:00 PM
Oct 29
79 °FClear.2 mph65%29.83 "Hg10 mi
10:00 PM81 °FClear.2 mph62%29.83 "Hg10 mi
9:00 PM79 °FClear.7 mph70%29.80 "Hg10 mi
8:00 PM81 °FClear.3 mph66%29.80 "Hg10 mi
7:00 PM81 °FSunny.9 mph70%29.80 "Hg10 mi
6:00 PM82 °FSunny.10 mph66%29.77 "Hg10 mi
5:00 PM84 °FPassing clouds.6 mph58%29.77 "HgN/A
4:00 PM82 °FPassing clouds.14 mph62%29.80 "HgN/A
3:00 PM81 °FPassing clouds.17 mph66%29.83 "HgN/A
2:00 PM79 °FPassing clouds.18 mph74%29.86 "HgN/A
1:00 PM81 °FPassing clouds.12 mph58%29.89 "HgN/A
12:00 PM77 °FPassing clouds.12 mph74%29.92 "HgN/A
11:00 AM81 °FPassing clouds.3 mph66%29.95 "HgN/A
10:00 AM77 °FPassing clouds.5 mph69%29.95 "HgN/A
Weather by CustomWeather, © 2014

See weather overviewHow to use our weather pages